[[{"header":{"parameterUnit":"m.s-1","parameterCategory":1,"la1":30.2991,"la2":30.254,"lo1":-89.0895,"lo2":-89.0444,"dy":0.0017,"dx":0.0017,"nx":28,"ny":28,"refTime":"2025-02-12T03:00:00:Z","depth":0,"parameterNumber":2,"parameterNumberName":"U-component_of_WINDS"},"data":[0,0,0,0,0,0,0,0,0,0,0,0,0,0,0,0,0,0,0,0,0,0,0,0,0,0,0,0,0,0,0,0,0,0,0,0,0,0,0,0,0,0,0,0,0,0,0,0,0,0,0,0,0,0,0,0,0,0,1.1147,1.1147,0,1.1178,1.1179,1.1179,1.1162,1.1161,1.116,1.1159,1.1194,1.1196,1.1198,0,0,0,0,0,0,0,0,0,0,0,0,0,1.1077,1.1079,1.1147,1.1147,1.1148,1.1178,1.1179,1.1179,1.1162,1.1161,1.116,1.1159,1.1194,1.1196,1.1198,0,0,0,0,0,0,0,0,0,0,0,0,0,1.1108,1.1079,1.1147,1.1143,1.1143,1.1178,1.1179,1.1179,1.1162,1.1161,1.116,1.1159,1.1193,1.1196,1.1198,1.124,0,0,1.1206,1.1207,0,0,0,0,0,0,0,0,1.1106,1.1111,1.1143,1.1143,1.1143,1.1165,1.1167,1.12,1.1163,1.1155,1.1159,1.1158,1.1186,1.1189,1.1198,1.1242,1.1243,1.1206,1.1208,1.1209,1.121,0,0,0,0,0,0,0,1.1104,1.1109,1.1159,1.1144,1.1144,1.1141,1.1144,1.1173,1.1177,1.1156,1.1154,1.1158,1.1186,1.1195,1.1198,1.1244,1.1206,1.1208,1.121,1.1211,1.1328,1.133,0,0,0,0,0,0,1.1102,1.1108,1.1158,1.116,1.1121,1.1144,1.1147,1.1159,1.1177,1.1178,1.1159,1.1157,1.1191,1.1195,1.1199,1.1252,1.1209,1.1211,1.1213,1.1327,1.1328,1.133,0,0,0,0,0,0,1.11,1.1107,1.1157,1.1134,1.114,1.1146,1.116,1.1161,1.117,1.118,1.1181,1.1168,1.119,1.1196,1.1231,1.1253,1.1213,1.1215,1.1325,1.1327,1.1329,1.1356,0,0,0,0,0,0,1.1098,1.1106,1.112,1.1134,1.1141,1.1186,1.1161,1.1162,1.1174,1.1172,1.1188,1.119,1.119,1.1227,1.1233,1.1256,1.1217,1.1323,1.1326,1.1329,1.1353,1.1359,1.1364,0,0,0,0,0,1.1096,1.1126,1.1121,1.1127,1.1159,1.1187,1.1192,1.119,1.1176,1.1192,1.1199,1.1189,1.125,1.1231,1.1238,1.1261,1.1321,1.1325,1.1328,1.1351,1.1358,1.1364,0,0,0,0,0,0,1.1115,1.1128,1.1122,1.1158,1.1172,1.1184,1.1204,1.1197,1.1216,1.1213,1.1212,1.1216,1.1253,1.1261,1.1239,1.1305,1.1284,1.1289,1.1298,1.1305,1.131,1.1308,1.1219,0,0,0,0,0,1.1124,1.1144,1.1155,1.1185,1.1192,1.1197,1.1209,1.1208,1.1222,1.1228,1.1237,1.1253,1.1276,1.1291,1.1312,1.1355,1.136,1.1375,1.138,1.1384,1.1389,1.1415,1.1423,1.1342,1.1342,1.1342,0,0,1.1141,1.1151,1.1163,1.1189,1.12,1.1223,1.1202,1.1227,1.1245,1.1232,1.1266,1.1274,1.1292,1.1331,1.1349,1.1339,1.1413,1.1389,1.1392,1.1394,1.142,1.1427,1.1434,1.1344,1.1344,1.1343,0,0,1.1184,1.1193,1.122,1.1232,1.1248,1.1252,1.1259,1.1274,1.1278,1.1312,1.1305,1.1327,1.1366,1.138,1.1392,1.1446,1.1439,1.1453,1.148,1.1506,1.1513,1.1518,1.154,1.1547,1.1457,1.1457,1.1457,0,1.1204,1.1237,1.1235,1.1262,1.1275,1.1265,1.1295,1.1306,1.1329,1.1339,1.1328,1.1378,1.1389,1.1434,1.1447,1.1457,1.1467,1.145,1.1512,1.1517,1.1523,1.1543,1.1551,1.1459,1.1459,1.1459,1.1458,0,1.1262,1.1285,1.1306,1.1328,1.1344,1.1371,1.1376,1.1393,1.1391,1.1397,1.1434,1.1447,1.1473,1.1484,1.1481,1.1529,1.1522,1.1511,1.149,1.1532,1.1552,1.1559,1.1461,1.1461,1.146,1.146,0,0,1.1315,1.1339,1.1347,1.1359,1.1378,1.1397,1.1426,1.1451,1.1466,1.1484,1.1509,1.1544,1.1535,1.1549,1.155,1.1572,1.1617,1.1559,1.1559,1.1571,1.1674,1.1682,1.1691,1.1613,1.1615,1.1616,1.1673,0,1.1361,1.141,1.1412,1.1457,1.1481,1.1475,1.15,1.1517,1.1524,1.1547,1.1555,1.1581,1.1566,1.1575,1.1597,1.1607,1.1638,1.1603,1.1639,1.1641,1.1635,1.1701,1.1709,1.1762,1.168,1.1681,1.1682,0,1.142,1.144,1.1488,1.1508,1.1518,1.154,1.1565,1.1586,1.1606,1.161,1.1628,1.1626,1.1659,1.1637,1.1684,1.166,1.1676,1.1683,1.1686,1.1689,1.1664,1.1707,1.1779,1.1787,1.1694,1.1693,1.1692,0,1.1457,1.1496,1.153,1.154,1.1563,1.158,1.159,1.1609,1.1625,1.1648,1.1659,1.1685,1.17,1.1721,1.1728,1.1711,1.1776,1.1754,1.1782,1.1782,1.1795,1.1794,1.1871,1.1804,1.1804,1.1804,1.1804,0,1.1508,1.1538,1.1547,1.1568,1.1604,1.1606,1.1642,1.1651,1.1669,1.1694,1.169,1.1715,1.1721,1.1748,1.1754,1.1793,1.1799,1.1806,1.1807,1.1806,1.1805,1.1816,1.1813,1.1806,1.1806,1.1805,1.1805,0,1.1554,1.1561,1.1599,1.1618,1.1624,1.1649,1.1667,1.1689,1.1697,1.1729,1.1737,1.175,1.1781,1.179,1.1828,1.1832,1.1879,1.1876,1.1872,1.1872,1.1901,1.1898,1.1987,1.2,1.1924,1.1925,1.1926,0,1.1586,1.1609,1.1632,1.1648,1.1659,1.1686,1.1702,1.1708,1.1726,1.1753,1.1772,1.1803,1.1828,1.1879,1.1893,1.1923,1.1922,1.1951,1.1926,1.1926,1.1924,1.1923,1.1927,1.1955,1.1956,1.1957,1.1957,0,1.1643,1.1646,1.167,1.1696,1.1716,1.1737,1.1757,1.1772,1.178,1.1802,1.1833,1.1853,1.1892,1.1924,1.1955,1.1968,1.1966,1.1966,1.1974,1.1973,1.1971,1.1974,1.1886,1.1963,1.1963,1.1962,1.1962,1.1962,1.1684,1.1706,1.1726,1.1753,1.1769,1.1789,1.1812,1.1824,1.185,1.1881,1.1884,1.1919,1.1943,1.1984,1.1999,1.2029,1.2021,1.2032,1.2035,1.2038,1.2042,1.1966,1.2035,1.2034,1.2034,1.2034,1.2034,0,1.1742,1.1756,1.1781,1.181,1.1833,1.1828,1.1851,1.1871,1.1902,1.1923,1.1948,1.1987,1.2019,1.2037,1.2069,1.209,1.209,1.2099,1.2097,1.2101,1.2046,1.2036,1.2098,1.2098,1.2098,1.2098,1.2098,1.2098,1.1775,1.1812,1.1819,1.1865,1.1879,1.1912,1.1927,1.1946,1.1964,1.2007,1.2033,1.2044,1.2066,1.2101,1.2131,1.2136,1.2149,1.2159,1.2163,1.2111,1.2105,1.2098,1.2089,1.2161,1.2161,1.2216,1.2216,1.2217]},{"header":{"parameterUnit":"m.s-1","parameterCategory":1,"la1":30.2991,"la2":30.254,"lo1":-89.0895,"lo2":-89.0444,"dy":0.0017,"dx":0.0017,"nx":28,"ny":28,"refTime":"2025-02-12T03:00:00:Z","depth":0,"parameterNumber":3,"parameterNumberName":"V-component_of_WINDS"},"data":[0,0,0,0,0,0,0,0,0,0,0,0,0,0,0,0,0,0,0,0,0,0,0,0,0,0,0,0,0,0,0,0,0,0,0,0,0,0,0,0,0,0,0,0,0,0,0,0,0,0,0,0,0,0,0,0,0,0,-8.4215,-8.4218,0,-8.4422,-8.4424,-8.4427,-8.4382,-8.4378,-8.4374,-8.4371,-8.458,-8.4589,-8.4598,0,0,0,0,0,0,0,0,0,0,0,0,0,-8.3783,-8.3791,-8.4215,-8.4218,-8.422,-8.4421,-8.4424,-8.4427,-8.4383,-8.4378,-8.4373,-8.4369,-8.4577,-8.4588,-8.4599,0,0,0,0,0,0,0,0,0,0,0,0,0,-8.3978,-8.3794,-8.4215,-8.4223,-8.4225,-8.4421,-8.4424,-8.4428,-8.4384,-8.4378,-8.4372,-8.4367,-8.4574,-8.4587,-8.4601,-8.4801,0,0,-8.4643,-8.4649,0,0,0,0,0,0,0,0,-8.3967,-8.3994,-8.4219,-8.4222,-8.4226,-8.437,-8.4349,-8.4553,-8.4385,-8.4324,-8.4371,-8.4364,-8.4515,-8.4533,-8.4585,-8.4811,-8.482,-8.4644,-8.4652,-8.4658,-8.4662,0,0,0,0,0,0,0,-8.3954,-8.3985,-8.4297,-8.4222,-8.4227,-8.4216,-8.4237,-8.4387,-8.4449,-8.4328,-8.4326,-8.4351,-8.4516,-8.4572,-8.4589,-8.4823,-8.4644,-8.4656,-8.4664,-8.467,-8.5227,-8.5233,0,0,0,0,0,0,-8.3937,-8.3974,-8.429,-8.4303,-8.408,-8.4228,-8.4252,-8.433,-8.4447,-8.446,-8.4356,-8.4348,-8.4551,-8.4573,-8.4596,-8.4841,-8.4658,-8.4671,-8.4679,-8.5221,-8.5229,-8.5236,0,0,0,0,0,0,-8.3928,-8.3966,-8.4282,-8.4138,-8.4177,-8.4242,-8.4329,-8.4337,-8.4392,-8.4468,-8.4479,-8.4401,-8.4547,-8.4577,-8.4751,-8.4848,-8.4677,-8.469,-8.5213,-8.5223,-8.5232,-8.533,0,0,0,0,0,0,-8.3916,-8.3963,-8.4039,-8.414,-8.4185,-8.4434,-8.4335,-8.4345,-8.4416,-8.4409,-8.4513,-8.4525,-8.4545,-8.4731,-8.4765,-8.4863,-8.47,-8.5205,-8.5217,-8.5229,-8.5319,-8.5342,-8.5362,0,0,0,0,0,-8.3901,-8.4057,-8.4043,-8.4082,-8.4282,-8.4439,-8.4465,-8.4485,-8.4424,-8.4502,-8.4551,-8.4522,-8.4831,-8.4749,-8.4787,-8.4891,-8.5199,-8.5214,-8.5228,-8.5309,-8.5338,-8.5362,0,0,0,0,0,0,-8.3965,-8.4071,-8.4056,-8.425,-8.4336,-8.4431,-8.453,-8.4514,-8.4619,-8.4607,-8.4627,-8.4651,-8.4829,-8.4877,-8.4784,-8.5093,-8.5006,-8.5029,-8.5055,-8.5083,-8.5104,-8.5089,-8.4712,0,0,0,0,0,-8.4002,-8.4121,-8.4206,-8.437,-8.4414,-8.4465,-8.4534,-8.4542,-8.4632,-8.4667,-8.4729,-8.4817,-8.4934,-8.5011,-8.5123,-8.5325,-8.5349,-8.5416,-8.5438,-8.5455,-8.5475,-8.5589,-8.562,-8.5284,-8.5284,-8.5284,0,0,-8.4079,-8.4151,-8.4225,-8.4384,-8.4452,-8.4575,-8.4495,-8.4628,-8.472,-8.4687,-8.4857,-8.4905,-8.5005,-8.5195,-8.5282,-8.5241,-8.5573,-8.5474,-8.5487,-8.5498,-8.5607,-8.5639,-8.5667,-8.5294,-8.5292,-8.5291,0,0,-8.4283,-8.4349,-8.4494,-8.4564,-8.4668,-8.4701,-8.4736,-8.4835,-8.4866,-8.5037,-8.5016,-8.5125,-8.5326,-8.5399,-8.5462,-8.5698,-8.5676,-8.5733,-8.5848,-8.5958,-8.5985,-8.6009,-8.6095,-8.6125,-8.5753,-8.5753,-8.5753,0,-8.4365,-8.455,-8.4569,-8.4706,-8.4778,-8.4756,-8.4903,-8.497,-8.5105,-8.5155,-8.5107,-8.5362,-8.5427,-8.5635,-8.5693,-8.5744,-8.5786,-8.5722,-8.598,-8.6004,-8.6026,-8.6108,-8.6141,-8.576,-8.5759,-8.5758,-8.5758,0,-8.4648,-8.4777,-8.4881,-8.5015,-8.5098,-8.5239,-8.5281,-8.5363,-8.5365,-8.5403,-8.5579,-8.5657,-8.5785,-8.5835,-8.5837,-8.6045,-8.6017,-8.5974,-8.5888,-8.6064,-8.6142,-8.6174,-8.5769,-8.5767,-8.5765,-8.5763,0,0,-8.4897,-8.5041,-8.5079,-8.5141,-8.5256,-8.5356,-8.5497,-8.5624,-8.5696,-8.579,-8.591,-8.6082,-8.6045,-8.6117,-8.6127,-8.6224,-8.6409,-8.617,-8.6172,-8.6213,-8.6646,-8.6679,-8.6715,-8.6395,-8.6401,-8.6406,-8.6639,0,-8.5113,-8.5363,-8.5386,-8.561,-8.5731,-8.5712,-8.5836,-8.592,-8.5961,-8.6069,-8.6113,-8.6237,-8.6176,-8.622,-8.6315,-8.6366,-8.6496,-8.6349,-8.6508,-8.6513,-8.6485,-8.6755,-8.679,-8.7005,-8.6669,-8.6674,-8.6678,0,-8.5398,-8.5503,-8.574,-8.5841,-8.5893,-8.6003,-8.6123,-8.6227,-8.6323,-8.6346,-8.6428,-8.6427,-8.6573,-8.6481,-8.6684,-8.6584,-8.665,-8.6685,-8.6694,-8.6711,-8.6607,-8.6781,-8.7074,-8.7108,-8.6726,-8.6722,-8.6718,0,-8.5559,-8.5759,-8.5928,-8.5981,-8.6102,-8.6181,-8.6235,-8.6325,-8.6401,-8.6506,-8.6556,-8.6677,-8.6743,-8.6836,-8.6868,-8.6797,-8.7071,-8.698,-8.7095,-8.7095,-8.7154,-8.715,-8.7464,-8.7194,-8.7194,-8.7193,-8.7192,0,-8.5798,-8.5944,-8.6002,-8.6106,-8.627,-8.6296,-8.6457,-8.6507,-8.6588,-8.6702,-8.6693,-8.68,-8.6834,-8.6948,-8.6973,-8.7139,-8.7168,-8.7192,-8.7197,-8.7194,-8.7191,-8.7238,-8.7225,-8.7202,-8.72,-8.7198,-8.7197,0,-8.6005,-8.605,-8.6233,-8.6334,-8.6363,-8.648,-8.6566,-8.6667,-8.6707,-8.6851,-8.6887,-8.6949,-8.7083,-8.7123,-8.7283,-8.73,-8.7495,-8.7486,-8.7464,-8.7465,-8.7578,-8.7567,-8.7934,-8.7985,-8.768,-8.7683,-8.7685,0,-8.6156,-8.6269,-8.6383,-8.6459,-8.6517,-8.664,-8.6718,-8.6748,-8.683,-8.695,-8.7037,-8.7169,-8.7277,-8.7491,-8.7551,-8.7674,-8.7669,-8.7789,-8.7687,-8.7681,-8.7673,-8.7667,-8.7679,-8.7808,-8.7811,-8.7814,-8.7816,0,-8.642,-8.6437,-8.6551,-8.6674,-8.6769,-8.6866,-8.6961,-8.7024,-8.7067,-8.716,-8.7298,-8.7381,-8.7546,-8.7679,-8.7804,-8.786,-8.7847,-8.7848,-8.7881,-8.788,-8.7863,-8.7876,-8.7518,-8.7839,-8.7837,-8.7835,-8.7834,-8.7833,-8.6605,-8.6705,-8.6802,-8.693,-8.7005,-8.7094,-8.7195,-8.7249,-8.7364,-8.7501,-8.7512,-8.7661,-8.7757,-8.7925,-8.7987,-8.8105,-8.807,-8.8118,-8.813,-8.8142,-8.8153,-8.7843,-8.8127,-8.8127,-8.8126,-8.8126,-8.8125,0,-8.687,-8.6932,-8.705,-8.7183,-8.7285,-8.7264,-8.7368,-8.7455,-8.7586,-8.7677,-8.7784,-8.7943,-8.8072,-8.8143,-8.8272,-8.8353,-8.835,-8.8386,-8.8381,-8.8395,-8.8175,-8.8134,-8.8386,-8.8386,-8.8386,-8.8386,-8.8386,-8.8386,-8.7019,-8.7189,-8.7219,-8.7427,-8.7488,-8.7635,-8.7696,-8.7779,-8.7852,-8.8031,-8.8139,-8.8185,-8.8269,-8.8404,-8.8522,-8.854,-8.8589,-8.8629,-8.8643,-8.8436,-8.841,-8.8384,-8.8346,-8.8639,-8.8639,-8.8853,-8.8855,-8.8857]}]]